Location: Betpouey
(42.8833°N, 0.0333°E)
Time: 23:03:29
(UTC+00:00)

Meteor 2-13 Rocket - Visible Passes

Search period start: 24 June 2021 00:00
Search period end: 04 July 2021 00:00
Orbit: 936 x 957 km, 82.5° (Epoch: 24 June)

Date Brightness Start Highest point End Pass type
(mag) Time Alt. Az. Time Alt. Az. Time Alt. Az.
24 Jun 5.8 01:30:39 20° WSW 01:33:16 26° WNW 01:38:21 10° NNW visible
24 Jun 6.6 22:20:04 10° E 22:21:10 10° ENE 22:22:18 10° ENE visible
25 Jun 4.4 00:03:15 51° SSE 00:04:51 77° E 00:11:02 10° NNE visible
25 Jun 6.3 01:47:18 12° W 01:50:23 17° WNW 01:54:20 10° NNW visible
25 Jun 6.1 22:35:50 16° ESE 22:37:33 18° E 22:41:24 10° NE visible
26 Jun 4.5 00:19:52 48° SSW 00:21:38 71° W 00:27:49 10° N visible
26 Jun 6.7 02:06:04 10° WNW 02:07:39 11° WNW 02:09:13 10° NW visible
26 Jun 5.6 22:52:26 24° ESE 22:54:00 27° E 22:59:03 10° NNE visible
27 Jun 5.1 00:36:29 35° WSW 00:38:31 46° WNW 00:44:26 10° N visible
27 Jun 5.1 23:09:03 36° ESE 23:10:34 42° E 23:16:18 10° NNE visible
28 Jun 5.7 00:53:05 24° WSW 00:55:29 31° WNW 01:00:53 10° N visible
28 Jun 4.5 23:25:38 48° SSE 23:27:13 65° E 23:33:19 10° NNE visible
29 Jun 6.2 01:09:40 15° W 01:12:34 20° WNW 01:17:02 10° NNW visible
29 Jun 6.3 21:58:10 13° E 22:00:01 15° E 22:03:11 10° NE visible
29 Jun 4.4 23:42:12 50° SSW 23:43:57 83° W 23:50:10 10° N visible
30 Jun 6.6 01:26:58 10° W 01:29:46 13° WNW 01:32:35 10° NW visible
30 Jun 5.8 22:14:43 20° ESE 22:16:27 23° E 22:21:06 10° NE visible
30 Jun 4.9 23:58:46 39° SW 00:00:47 55° WNW 00:06:50 10° N visible
01 Jul 5.3 22:31:16 30° ESE 22:32:58 35° E 22:38:28 10° NNE visible
02 Jul 5.5 00:15:19 27° WSW 00:17:44 36° WNW 00:23:21 10° N visible
02 Jul 4.7 22:47:48 41° SE 22:49:36 55° E 22:55:34 10° NNE visible
03 Jul 6.1 00:31:50 17° WSW 00:34:46 24° WNW 00:39:38 10° NNW visible
03 Jul 6.4 21:20:24 10° E 21:22:31 12° ENE 21:24:37 10° ENE visible
03 Jul 4.4 23:04:19 46° S 23:06:18 84° E 23:12:29 10° N visible
